• In Hungary
  • List of Countries
  • For 7 days
  • Water Temperature
  • Satellite Maps
  • Weather Map
  • News
  • Weather Widgets
  • user-avatar
    Login

    Hourly Weather Plovdiv

    Today, 15 August, Wednesday

    Time Temperature Precipitation Wind Pressure Humidity
    00:00 +22°C° 0 mm 1 mps 737 mmHg 60%
    01:00 +22°C° 0 mm 1 mps 737 mmHg 63%
    02:00 +22°C° 0 mm 1 mps 736 mmHg 67%
    03:00 +21°C° 0 mm 1 mps 736 mmHg 70%
    04:00 +21°C° 0 mm 1 mps 736 mmHg 72%
    05:00 +20°C° 0 mm 1 mps 736 mmHg 75%
    06:00 +22°C° 0 mm 1 mps 736 mmHg 70%
    07:00 +24°C° 0 mm 1 mps 737 mmHg 65%
    08:00 +26°C° 0 mm 1 mps 737 mmHg 58%
    09:00 +27°C° 0 mm 1 mps 737 mmHg 51%
    10:00 +29°C° 0 mm 1 mps 737 mmHg 44%
    11:00 +31°C° 0 mm 2 mps 737 mmHg 37%
    12:00 +31°C° 0 mm 2 mps 737 mmHg 35%
    13:00 +32°C° 0 mm 2 mps 736 mmHg 32%
    14:00 +32°C° 0 mm 2 mps 736 mmHg 31%
    15:00 +32°C° 0 mm 2 mps 736 mmHg 31%
    16:00 +32°C° 0 mm 2 mps 736 mmHg 31%
    17:00 +31°C° 0 mm 2 mps 736 mmHg 31%
    18:00 +29°C° 0 mm 2 mps 736 mmHg 36%
    19:00 +27°C° 0 mm 1 mps 736 mmHg 41%
    20:00 +24°C° 0 mm 1 mps 736 mmHg 46%
    21:00 +24°C° 0 mm 1 mps 736 mmHg 46%
    22:00 +23°C° 0 mm 1 mps 737 mmHg 47%
    23:00 +23°C° 0 mm 2 mps 737 mmHg 47%

    Tomorrow, 16 August, Thursday

    Time Temperature Precipitation Wind Pressure Humidity
    00:00 +21°C° 0 mm 2 mps 737 mmHg 48%
    01:00 +21°C° 0 mm 2 mps 737 mmHg 49%
    02:00 +20°C° 0 mm 2 mps 737 mmHg 50%
    03:00 +20°C° 0 mm 2 mps 737 mmHg 51%
    04:00 +20°C° 0 mm 2 mps 737 mmHg 53%
    05:00 +20°C° 0 mm 2 mps 737 mmHg 54%
    06:00 +23°C° 0 mm 2 mps 737 mmHg 51%
    07:00 +25°C° 0 mm 2 mps 737 mmHg 49%
    08:00 +27°C° 0 mm 1 mps 737 mmHg 46%
    09:00 +28°C° 0 mm 2 mps 737 mmHg 42%
    10:00 +30°C° 0 mm 2 mps 737 mmHg 38%
    11:00 +32°C° 0 mm 2 mps 737 mmHg 33%
    12:00 +32°C° 0 mm 2 mps 737 mmHg 32%
    13:00 +33°C° 0 mm 3 mps 737 mmHg 31%
    14:00 +34°C° 0 mm 3 mps 736 mmHg 29%
    15:00 +33°C° 0 mm 3 mps 736 mmHg 31%
    16:00 +33°C° 0 mm 3 mps 736 mmHg 33%
    17:00 +31°C° 0 mm 3 mps 736 mmHg 35%
    18:00 +30°C° 0 mm 2 mps 736 mmHg 40%
    19:00 +28°C° 0 mm 2 mps 736 mmHg 45%
    20:00 +26°C° 0 mm 1 mps 736 mmHg 50%
    21:00 +25°C° 0.1 mm 1 mps 736 mmHg 52%
    22:00 +24°C° 0.1 mm 1 mps 736 mmHg 54%
    23:00 +24°C° 0.1 mm 2 mps 736 mmHg 57%

    Day after tomorrow, 17 August, Friday

    Time Temperature Precipitation Wind Pressure Humidity
    00:00 +23°C° 0 mm 2 mps 736 mmHg 58%
    01:00 +23°C° 0 mm 2 mps 736 mmHg 59%
    02:00 +23°C° 0 mm 2 mps 736 mmHg 61%
    03:00 +21°C° 0 mm 2 mps 736 mmHg 62%
    04:00 +21°C° 0 mm 2 mps 736 mmHg 63%
    05:00 +21°C° 0 mm 2 mps 736 mmHg 64%
    06:00 +24°C° 0 mm 2 mps 736 mmHg 60%
    07:00 +25°C° 0 mm 2 mps 737 mmHg 55%
    08:00 +27°C° 0 mm 2 mps 737 mmHg 50%
    09:00 +29°C° 0 mm 2 mps 737 mmHg 44%
    10:00 +31°C° 0 mm 2 mps 737 mmHg 39%
    11:00 +32°C° 0 mm 2 mps 737 mmHg 34%
    12:00 +34°C° 0 mm 2 mps 737 mmHg 33%
    13:00 +34°C° 0 mm 2 mps 736 mmHg 32%
    14:00 +34°C° 0 mm 2 mps 736 mmHg 31%
    15:00 +34°C° 0 mm 2 mps 736 mmHg 33%
    16:00 +32°C° 0 mm 2 mps 736 mmHg 35%
    17:00 +32°C° 0 mm 2 mps 735 mmHg 37%
    18:00 +30°C° 0 mm 2 mps 736 mmHg 41%
    19:00 +28°C° 0 mm 1 mps 736 mmHg 45%
    20:00 +26°C° 0 mm 1 mps 736 mmHg 49%
    21:00 +26°C° 0 mm 1 mps 736 mmHg 50%
    22:00 +25°C° 0 mm 1 mps 736 mmHg 50%
    23:00 +25°C° 0 mm 2 mps 737 mmHg 51%

    18 August, Saturday

    Time Temperature Precipitation Wind Pressure Humidity
    00:00 +24°C° 0 mm 1 mps 737 mmHg 52%
    01:00 +24°C° 0 mm 1 mps 737 mmHg 53%
    02:00 +23°C° 0 mm 1 mps 737 mmHg 54%
    03:00 +23°C° 0 mm 1 mps 737 mmHg 55%
    04:00 +23°C° 0 mm 1 mps 737 mmHg 56%
    05:00 +21°C° 0 mm 2 mps 737 mmHg 57%
    06:00 +24°C° 0 mm 1 mps 737 mmHg 54%
    07:00 +26°C° 0 mm 1 mps 737 mmHg 50%
    08:00 +28°C° 0 mm 1 mps 738 mmHg 47%
    09:00 +29°C° 0 mm 1 mps 738 mmHg 43%
    10:00 +31°C° 0 mm 2 mps 738 mmHg 38%
    11:00 +32°C° 0 mm 2 mps 738 mmHg 34%
    12:00 +34°C° 0 mm 2 mps 738 mmHg 33%
    13:00 +34°C° 0 mm 3 mps 737 mmHg 32%
    14:00 +34°C° 0 mm 3 mps 737 mmHg 32%
    15:00 +34°C° 0 mm 3 mps 737 mmHg 33%
    16:00 +32°C° 0 mm 2 mps 737 mmHg 35%
    17:00 +32°C° 0 mm 2 mps 736 mmHg 37%
    18:00 +30°C° 0 mm 2 mps 737 mmHg 41%
    19:00 +28°C° 0 mm 2 mps 737 mmHg 44%
    20:00 +26°C° 0 mm 1 mps 737 mmHg 48%
    21:00 +26°C° 0 mm 1 mps 737 mmHg 49%
    22:00 +25°C° 0 mm 2 mps 737 mmHg 50%
    23:00 +25°C° 0 mm 2 mps 738 mmHg 51%

    19 August, Sunday

    Time Temperature Precipitation Wind Pressure Humidity
    00:00 +24°C° 0 mm 2 mps 738 mmHg 52%
    01:00 +24°C° 0 mm 2 mps 738 mmHg 53%
    02:00 +24°C° 0 mm 2 mps 738 mmHg 54%
    03:00 +23°C° 0 mm 2 mps 738 mmHg 55%
    04:00 +23°C° 0 mm 2 mps 738 mmHg 56%
    05:00 +23°C° 0 mm 2 mps 738 mmHg 57%
    06:00 +24°C° 0 mm 2 mps 738 mmHg 53%
    07:00 +26°C° 0 mm 2 mps 738 mmHg 49%
    08:00 +28°C° 0 mm 2 mps 739 mmHg 46%
    09:00 +29°C° 0 mm 2 mps 739 mmHg 41%
    10:00 +31°C° 0 mm 3 mps 739 mmHg 36%
    11:00 +34°C° 0 mm 3 mps 739 mmHg 31%
    12:00 +34°C° 0 mm 3 mps 738 mmHg 31%
    13:00 +34°C° 0 mm 3 mps 738 mmHg 31%
    14:00 +34°C° 0 mm 4 mps 738 mmHg 30%
    15:00 +34°C° 0 mm 3 mps 738 mmHg 32%
    16:00 +33°C° 0 mm 3 mps 737 mmHg 34%
    17:00 +31°C° 0 mm 3 mps 737 mmHg 36%
    18:00 +30°C° 0 mm 3 mps 737 mmHg 40%
    19:00 +28°C° 0 mm 2 mps 738 mmHg 45%
    20:00 +26°C° 0 mm 1 mps 738 mmHg 49%
    21:00 +25°C° 0 mm 1 mps 738 mmHg 50%
    22:00 +24°C° 0 mm 1 mps 738 mmHg 51%
    23:00 +24°C° 0 mm 1 mps 738 mmHg 52%

    20 August, Monday

    Time Temperature Precipitation Wind Pressure Humidity
    00:00 +23°C° 0 mm 1 mps 738 mmHg 53%
    01:00 +23°C° 0 mm 1 mps 738 mmHg 55%
    02:00 +21°C° 0 mm 2 mps 738 mmHg 56%
    03:00 +21°C° 0 mm 2 mps 738 mmHg 57%
    04:00 +21°C° 0 mm 2 mps 738 mmHg 58%
    05:00 +21°C° 0 mm 2 mps 738 mmHg 58%
    06:00 +23°C° 0 mm 2 mps 738 mmHg 54%
    07:00 +25°C° 0 mm 2 mps 739 mmHg 50%
    08:00 +27°C° 0 mm 1 mps 739 mmHg 45%
    09:00 +29°C° 0 mm 2 mps 739 mmHg 42%
    10:00 +30°C° 0 mm 2 mps 739 mmHg 38%
    11:00 +33°C° 0 mm 3 mps 739 mmHg 34%
    12:00 +33°C° 0 mm 3 mps 739 mmHg 34%
    13:00 +33°C° 0 mm 3 mps 738 mmHg 34%
    14:00 +33°C° 0 mm 3 mps 738 mmHg 34%
    15:00 +33°C° 0 mm 3 mps 738 mmHg 36%
    16:00 +31°C° 0 mm 3 mps 738 mmHg 38%
    17:00 +31°C° 0 mm 3 mps 738 mmHg 39%
    18:00 +29°C° 0 mm 2 mps 738 mmHg 44%
    19:00 +27°C° 0 mm 2 mps 738 mmHg 49%
    20:00 +25°C° 0 mm 1 mps 738 mmHg 54%
    21:00 +25°C° 0 mm 1 mps 738 mmHg 55%
    22:00 +24°C° 0 mm 1 mps 738 mmHg 57%
    23:00 +23°C° 0 mm 1 mps 739 mmHg 58%
    Show more